Temperature
24 24 25 25 26 25 24 23 22 22 21 21 21 21 22 22 22 22 21 21 21 20 20 20 20 20 19 19 19 18 18 18 18 17 17 17 17 16 16 16 16 16 16 15
24 25 25 25 25 25 25 24 23 22 21 21 21 22 21 21 21 21 21 21 21 20 20 20 19 19 19 19 18 18 18 18 17 17 17 17 16 16 16 16 16 15 15 15
22 23 23 23 24 24 23 23 22 21 21 20 20 21 21 21 21 21 21 21 21 20 20 20 19 19 19 18 18 18 18 17 17 17 16 16 16 16 15 15 15 15 15 15
20 22 22 22 23 24 23 22 22 21 21 21 21 21 21 21 21 21 21 21 21 20 20 19 19 19 19 18 18 18 17 17 16 16 16 16 16 15 15 15 15 15 14 14
19 20 21 22 23 23 22 21 21 21 21 21 21 20 20 21 21 21 21 21 20 20 20 19 19 18 18 18 17 17 17 16 16 16 16 15 15 15 15 15 14 14 14 14
19 21 21 22 23 23 22 20 21 21 20 20 20 18 18 20 20 20 20 20 20 19 19 19 18 18 18 17 17 17 16 16 16 16 15 15 15 15 14 14 14 14 14 14
19 20 20 21 22 23 21 19 21 21 21 20 19 19 20 20 20 20 20 19 19 19 18 18 18 17 17 17 17 16 16 16 16 15 15 15 15 14 14 14 14 14 14 14
18 19 19 21 21 20 19 21 21 21 21 21 21 20 20 20 20 20 19 19 19 18 18 17 17 17 17 16 16 16 15 15 15 15 14 14 14 14 14 14 14 14 14 13
17 18 19 21 20 21 21 21 21 21 21 21 20 20 20 19 19 19 19 18 18 18 17 17 16 16 16 16 16 15 15 15 14 14 14 14 14 14 14 14 13 13 13 13
17 18 19 20 20 21 21 21 21 20 20 20 20 19 19 18 18 18 18 18 17 17 17 16 16 16 16 15 15 15 14 14 14 14 14 14 14 14 13 13 13 13 13 13
16 17 19 20 20 20 20 20 20 20 20 20 19 19 18 18 17 17 17 17 17 17 16 16 16 15 15 15 15 14 14 14 14 14 14 13 13 13 13 13 13 13 13 13
16 17 17 18 20 20 20 20 19 19 19 19 19 18 18 17 17 17 17 16 16 16 16 15 15 15 15 15 14 14 14 14 13 13 13 13 13 13 13 13 13 13 13 12
19 19 19 19 19 19 19 19 19 19 19 18 18 17 17 17 16 16 16 16 16 15 15 15 15 15 15 15 14 14 14 13 13 13 13 13 13 13 13 13 12 12 12 12
19 19 18 19 19 19 19 19 18 18 18 18 17 17 17 16 16 15 15 15 15 15 15 15 15 15 15 14 14 14 13 13 13 13 13 13 12 12 12 12 12 12 12 12
18 18 18 18 18 18 18 18 18 17 17 17 17 17 16 16 15 15 15 15 15 14 14 14 14 14 14 14 13 13 13 13 13 13 13 12 12 12 12 12 12 12 12 11
17 18 18 18 18 18 18 17 17 17 17 17 16 16 16 15 15 15 14 14 14 14 14 14 14 14 14 14 13 13 13 13 13 12 12 12 12 12 12 12 12 11 11 11
17 16 17 17 17 17 17 17 17 16 16 16 16 15 15 15 15 14 14 14 14 14 14 14 14 14 13 13 13 13 13 13 12 12 12 12 12 12 12 11 11 11 11 11
16 16 16 17 17 17 17 16 16 16 16 15 15 15 15 15 14 14 14 14 14 13 14 14 13 13 13 13 13 13 13 12 12 12 12 12 12 11 11 11 11 11 11 10
16 16 16 16 16 16 16 16 16 15 15 15 15 15 14 14 14 14 14 13 13 13 13 13 13 13 13 13 13 12 12 12 12 12 12 11 11 11 11 11 11 11 10 10
16 16 16 16 16 16 16 15 15 15 15 15 14 14 14 14 14 14 13 13 13 13 13 13 13 13 13 13 12 12 12 12 12 11 11 11 11 11 11 11 10 10 10 10
15 15 15 15 15 15 15 15 15 14 14 14 14 14 14 14 14 13 13 13 13 13 13 13 13 13 13 12 12 12 12 12 12 11 11 11 11 11 11 10 10 10 10 10
15 15 15 15 15 15 15 15 14 14 14 14 14 14 13 13 13 13 13 13 13 13 13 13 13 13 12 12 12 12 12 12 11 11 11 11 11 11 10 10 10 10 10 9
14 14 14 14 14 14 14 14 14 14 14 14 14 13 13 13 13 13 13 13 13 13 13 13 12 12 12 12 12 12 12 11 11 11 11 11 10 10 10 10 10 10 9 9
14 14 14 14 14 14 14 14 14 14 14 14 13 13 13 13 13 13 13 13 13 12 12 12 12 12 12 12 11 11 11 11 11 11 10 10 10 10 10 10 9 9 9 9
14 14 14 14 14 14 14 14 14 14 14 13 13 13 13 13 13 13 13 13 12 12 12 12 12 12 12 11 11 11 11 11 10 10 10 10 10 10 10 9 9 9 9 8
13 13 13 13 13 13 13 13 13 13 13 13 13 13 13 13 13 13 13 12 12 12 12 12 12 12 11 11 11 11 11 10 10 10 10 10 10 9 9 9 9 8 8 8
13 13 13 13 13 13 13 13 13 13 13 13 13 13 13 12 12 12 12 12 12 12 12 11 11 11 11 11 11 11 10 10 10 10 10 9 9 9 9 9 8 8 8 8
Wind_Speed
4 3 1 1 3 1 2 5 6 6 6 7 6 7 7 7 7 7 6 6 6 5 4 4 4 4 4 4 3 3 3 3 1 1 1 1 1 1 1 2 2 2 1 1
3 1 3 3 3 1 1 2 5 5 3 3 4 5 5 7 8 7 6 6 6 5 4 4 5 4 4 4 4 4 4 2 1 1 1 2 1 1 1 0 1 1 1 1
3 3 4 3 3 1 1 1 5 5 6 5 5 5 6 7 7 7 6 6 6 6 6 5 6 6 5 5 4 4 4 3 2 2 2 1 1 2 1 1 1 0 1 1
1 3 2 6 2 4 4 2 2 3 7 8 6 4 3 5 5 5 5 5 5 5 5 4 4 5 5 5 4 4 3 2 2 2 2 1 1 1 1 0 0 0 1 1
3 2 3 4 2 1 3 2 1 5 6 5 5 5 3 1 2 4 4 4 4 5 5 5 5 5 5 4 4 4 3 3 2 2 2 1 1 1 1 1 1 1 1 1
4 3 5 5 4 0 5 1 2 4 6 5 5 3 2 1 2 2 3 3 4 4 5 5 4 5 6 4 4 3 3 3 3 2 2 2 2 1 1 1 1 1 1 1
4 3 4 4 4 2 3 5 3 3 5 5 4 6 5 2 2 3 4 4 4 5 4 3 4 5 5 4 4 4 3 2 2 2 2 2 1 1 1 1 1 1 1 2
3 3 5 5 2 3 6 4 2 3 4 4 4 4 4 4 3 5 4 4 5 4 2 1 3 4 4 3 3 2 2 2 1 1 1 0 0 1 1 0 0 2 1 2
5 5 4 1 3 3 4 4 2 3 4 5 5 5 5 4 4 4 5 4 4 5 3 1 2 3 3 2 2 3 2 1 1 0 0 0 0 0 1 1 0 1 1 1
2 1 0 2 2 2 2 2 1 3 4 5 5 6 5 5 4 3 4 4 4 4 3 1 1 2 3 2 2 3 2 1 1 0 0 1 1 0 1 0 0 1 1 1
1 1 2 4 3 2 2 4 5 4 4 5 7 6 6 5 4 3 2 3 4 4 3 2 2 2 2 2 2 2 2 1 0 0 1 1 1 1 1 2 2 3 2 2
4 5 2 3 3 1 3 3 4 5 4 5 7 7 6 5 4 3 3 3 3 3 3 2 2 1 0 1 2 2 1 1 1 1 1 1 1 2 3 1 0 3 4 3
3 2 2 2 1 2 3 2 3 5 5 5 5 7 6 5 3 3 3 3 2 2 2 2 2 1 1 1 1 2 1 1 1 1 1 1 1 1 1 3 4 2 1 2
1 2 2 2 1 2 3 3 3 4 4 5 5 5 5 5 4 3 2 2 2 1 1 1 1 1 2 1 1 1 1 1 1 1 2 2 2 2 2 1 2 3 4 5
2 0 1 0 2 2 3 4 5 4 4 4 5 5 5 6 5 2 2 2 2 2 1 0 0 1 1 1 1 1 1 1 1 1 1 1 2 2 1 2 2 2 3 4
1 2 2 3 3 3 4 5 4 3 4 4 3 4 4 5 4 3 2 2 2 1 1 1 1 2 1 1 1 1 1 1 0 0 0 0 1 1 1 1 1 2 2 3
1 0 1 1 1 2 2 3 3 4 3 3 3 4 4 4 4 3 1 1 2 2 2 2 2 2 1 1 1 1 1 1 0 0 1 1 1 1 2 2 2 2 3 3
3 3 3 3 2 1 1 2 3 3 3 3 3 4 4 5 4 3 2 1 0 1 2 2 2 1 1 2 2 1 1 1 1 1 1 1 1 1 1 1 2 2 2 2
1 2 1 1 1 2 2 2 2 2 2 3 4 4 4 4 4 3 2 2 2 2 3 3 2 1 2 2 1 1 2 1 1 1 1 1 1 1 1 1 1 2 2 2
1 2 2 1 1 2 2 2 2 1 2 2 2 2 2 2 3 2 2 2 3 3 3 2 1 1 2 2 1 1 2 2 2 1 1 1 1 2 2 2 2 2 2 2
1 1 2 3 2 1 2 3 3 3 2 3 3 2 2 2 2 2 2 2 3 2 1 2 1 1 1 1 1 1 2 2 2 2 2 2 2 2 2 2 2 2 2 2
1 2 2 2 2 1 1 1 2 3 3 3 2 2 2 1 1 1 2 3 3 2 1 1 1 2 1 1 1 1 2 2 2 2 2 2 2 2 2 2 2 2 1 1
1 1 1 1 2 1 0 0 1 2 3 3 3 3 3 3 3 3 2 3 2 2 1 2 2 2 1 1 1 1 1 1 1 2 2 2 2 1 1 2 1 1 1 1
1 0 0 1 1 1 0 1 1 1 2 2 3 3 3 2 1 2 3 4 4 3 2 2 2 1 1 1 1 1 1 1 1 1 2 1 1 1 1 1 1 1 1 1
1 0 1 1 1 1 1 1 0 0 0 1 1 2 2 2 3 3 2 2 3 3 2 2 2 1 1 1 0 0 1 1 1 1 1 2 2 2 1 1 2 2 1 1
0 0 1 1 1 1 1 1 1 0 0 0 1 1 1 1 1 1 1 2 2 1 1 1 1 1 1 1 1 1 1 1 1 1 1 2 2 1 1 1 1 1 1 1
1 0 0 1 1 0 1 1 1 1 2 2 1 1 1 1 0 0 1 1 1 1 1 1 1 1 1 1 1 1 0 0 1 1 1 1 1 1 1 1 1 1 1 1
Wind_Direction
221 219 170 281 279 252 174 181 181 198 188 206 189 164 158 152 144 133 138 144 152 151 151 159 153 153 149 152 149 141 132 127 136 131 124 125 117 145 168 178 184 180 164 181
337 357 41 3 316 253 209 151 156 146 185 203 162 135 134 139 144 149 163 163 155 155 161 166 164 159 148 139 139 132 132 144 145 119 111 106 100 97 99 133 193 153 155 183
291 320 41 332 279 191 93 125 157 180 195 165 142 145 158 164 165 170 168 160 161 171 180 179 174 162 154 158 146 131 132 135 123 114 104 110 116 91 84 67 74 143 203 224
162 44 214 241 249 107 104 42 51 136 155 159 163 162 160 163 161 161 160 161 165 168 168 166 160 153 152 142 134 131 131 136 131 121 109 90 89 101 144 138 195 224 240 245
128 157 255 279 296 126 112 26 18 121 129 132 114 72 18 13 135 163 157 151 154 157 154 148 149 151 137 129 129 130 141 154 160 149 137 129 147 200 216 218 253 251 251 231
138 162 216 243 286 64 94 24 308 134 138 132 107 112 246 281 79 98 113 125 122 126 122 137 149 141 133 137 135 149 165 170 166 155 155 181 209 226 242 216 223 241 277 259
168 195 245 266 297 41 119 223 251 143 150 148 158 188 201 179 114 116 117 120 110 107 118 144 147 136 139 148 165 174 163 146 136 146 167 191 198 241 246 238 266 284 279 299
153 175 240 288 26 136 195 203 170 150 154 155 153 147 140 134 131 127 119 117 113 105 97 118 135 134 144 171 182 152 138 131 145 162 178 130 123 305 305 254 323 319 326 336
176 204 231 227 145 178 158 143 153 146 149 142 139 143 131 125 124 126 122 119 119 120 113 80 110 126 136 175 146 122 117 125 180 232 334 99 178 279 331 341 352 320 330 312
77 257 260 57 68 75 103 118 128 129 131 124 128 134 126 125 119 121 126 123 119 122 124 101 74 97 129 147 135 127 139 188 218 208 338 327 324 220 182 205 231 260 262 277
88 239 29 13 17 28 41 53 65 72 99 120 128 134 136 134 128 132 133 130 132 134 136 130 89 78 99 103 111 125 151 176 249 267 262 300 296 274 226 222 201 194 216 218
221 232 190 254 289 29 65 65 87 87 73 101 122 131 131 137 142 141 140 132 119 114 131 137 121 117 121 106 119 129 152 192 207 220 268 270 274 325 348 339 233 182 177 182
205 210 185 223 4 57 73 95 114 117 123 119 123 130 131 132 131 130 119 123 129 140 149 148 137 155 230 223 145 138 174 222 228 224 233 234 243 230 292 340 356 356 242 228
57 82 43 23 52 64 78 94 104 102 117 127 135 131 130 123 125 128 134 148 146 131 131 153 159 229 248 187 139 148 185 239 240 236 233 238 240 231 211 222 295 309 295 273
332 88 184 194 64 66 75 88 91 95 105 106 137 140 140 137 140 152 150 125 107 86 67 80 189 272 275 203 166 207 227 242 245 246 243 243 246 239 229 224 237 270 298 307
337 19 45 60 79 85 89 100 115 128 134 127 134 149 148 143 146 145 142 134 134 153 254 241 260 263 249 196 197 248 238 230 200 213 250 266 257 245 241 235 245 250 263 275
124 278 326 5 64 100 115 131 138 144 147 146 148 139 135 131 131 143 173 190 185 208 222 211 243 263 235 207 206 227 230 217 166 141 239 240 239 238 238 227 234 248 260 265
176 208 210 201 182 121 86 112 119 134 149 149 135 129 137 144 163 183 198 203 162 294 268 244 236 247 238 229 210 211 200 210 218 213 236 253 241 226 253 243 237 248 271 285
220 227 214 144 130 123 123 126 143 156 144 136 148 160 165 169 174 185 189 175 180 225 260 256 236 242 253 246 230 199 195 208 240 236 217 214 233 250 242 242 241 246 251 267
244 218 172 144 164 154 145 136 136 151 158 168 167 160 161 188 185 179 171 197 219 227 235 234 231 251 259 262 250 198 201 212 225 226 206 209 224 242 246 241 243 251 253 252
92 133 142 158 187 196 167 158 159 169 174 167 166 179 200 220 193 171 165 217 259 245 227 220 223 248 262 273 270 232 223 224 226 226 224 227 234 240 238 237 232 240 244 248
73 97 136 162 163 199 252 209 184 177 171 174 173 171 181 221 229 216 211 212 228 232 225 239 249 256 282 317 311 269 238 224 218 216 223 230 233 235 237 237 226 231 241 243
55 108 114 143 176 191 241 238 196 183 183 188 187 194 205 214 203 185 228 248 224 209 204 231 245 252 261 302 284 270 227 227 226 221 224 223 220 221 232 237 240 247 251 252
348 49 158 185 133 111 299 277 259 207 194 192 197 195 191 197 237 236 223 210 203 198 210 224 219 234 241 282 291 275 267 261 247 226 214 197 185 197 209 211 224 247 246 236
315 350 85 99 108 205 223 231 303 321 206 195 226 226 202 194 212 238 226 202 196 194 226 230 216 213 207 222 195 234 260 251 241 216 192 193 201 201 206 211 208 208 207 200
224 246 249 231 213 207 210 190 186 242 168 278 302 279 265 289 280 244 201 202 209 208 221 234 220 199 194 180 185 226 235 252 287 266 223 213 212 202 194 187 195 190 190 183
290 289 61 35 360 279 252 208 185 213 208 186 215 274 284 302 296 159 157 189 201 206 208 220 203 188 184 181 212 258 243 233 261 271 248 214 198 202 203 197 183 188 190 177
Height
1491 1487 1486 1487 1487 1486 1491 1496 1506 1504 1503 1498 1494 1493 1494 1496 1497 1499 1500 1501 1502 1502 1503 1504 1504 1505 1505 1505 1506 1506 1505 1505 1504 1504 1503 1502 1502 1502 1501 1501 1499 1499 1499 1498
1491 1485 1485 1488 1486 1484 1486 1488 1493 1497 1499 1492 1492 1492 1493 1494 1495 1496 1498 1499 1500 1501 1502 1502 1503 1503 1503 1503 1504 1504 1503 1503 1503 1502 1501 1500 1500 1499 1499 1499 1498 1497 1496 1496
1502 1492 1491 1501 1490 1487 1488 1487 1489 1496 1494 1491 1491 1491 1492 1493 1494 1495 1496 1497 1498 1499 1500 1500 1501 1501 1501 1501 1502 1502 1502 1501 1501 1500 1499 1499 1498 1498 1497 1497 1496 1495 1494 1494
1505 1502 1515 1500 1483 1482 1486 1487 1485 1485 1487 1488 1489 1489 1491 1492 1492 1493 1494 1494 1495 1497 1498 1499 1499 1499 1500 1500 1500 1500 1499 1499 1499 1498 1498 1497 1497 1497 1496 1495 1495 1494 1493 1492
1509 1512 1508 1493 1483 1483 1488 1492 1486 1486 1486 1488 1489 1490 1492 1492 1492 1492 1492 1493 1493 1495 1496 1497 1497 1498 1498 1498 1498 1498 1498 1497 1497 1497 1496 1496 1495 1494 1494 1494 1493 1492 1491 1490
1504 1509 1512 1495 1481 1479 1484 1496 1487 1485 1486 1487 1488 1495 1495 1492 1492 1492 1492 1492 1493 1493 1494 1495 1495 1496 1496 1495 1496 1495 1495 1495 1495 1495 1494 1494 1493 1493 1492 1492 1491 1490 1489 1488
1501 1505 1499 1485 1478 1479 1496 1498 1486 1485 1485 1486 1486 1489 1490 1490 1490 1491 1492 1492 1492 1492 1493 1493 1494 1494 1493 1493 1493 1493 1493 1493 1493 1493 1492 1492 1491 1491 1490 1490 1489 1488 1487 1486
1500 1506 1503 1481 1479 1484 1488 1484 1484 1483 1483 1484 1484 1486 1487 1488 1489 1490 1490 1491 1491 1491 1492 1492 1492 1492 1491 1491 1491 1491 1492 1492 1491 1490 1490 1490 1490 1489 1489 1488 1487 1486 1485 1483
1493 1494 1485 1480 1479 1480 1480 1481 1481 1480 1480 1481 1483 1484 1485 1487 1488 1488 1489 1489 1490 1490 1491 1491 1491 1490 1490 1490 1490 1489 1490 1490 1490 1489 1488 1488 1488 1487 1486 1486 1485 1484 1483 1482
1487 1485 1482 1481 1480 1480 1480 1479 1479 1479 1479 1480 1481 1482 1484 1486 1487 1487 1488 1488 1488 1489 1489 1489 1489 1489 1489 1489 1488 1488 1488 1488 1488 1487 1487 1486 1486 1485 1484 1483 1483 1482 1481 1480
1488 1485 1482 1481 1480 1480 1479 1479 1478 1479 1478 1478 1479 1481 1483 1484 1485 1486 1486 1487 1487 1487 1487 1487 1488 1488 1488 1488 1487 1487 1487 1486 1486 1486 1485 1484 1484 1483 1482 1481 1481 1480 1479 1479
1488 1483 1483 1482 1481 1480 1479 1479 1479 1479 1479 1478 1478 1480 1482 1483 1484 1485 1486 1486 1485 1486 1486 1486 1487 1487 1487 1487 1486 1486 1485 1485 1485 1484 1483 1482 1481 1480 1480 1480 1479 1478 1477 1476
1480 1480 1480 1480 1480 1480 1480 1479 1479 1479 1478 1478 1478 1480 1481 1481 1482 1484 1484 1485 1484 1485 1485 1485 1485 1485 1485 1485 1485 1485 1484 1483 1483 1482 1481 1480 1479 1479 1478 1477 1476 1475 1475 1474
1480 1479 1479 1479 1480 1479 1479 1479 1479 1479 1478 1478 1478 1480 1481 1481 1482 1483 1483 1484 1484 1484 1484 1484 1484 1484 1484 1484 1484 1483 1482 1482 1481 1480 1479 1478 1478 1477 1476 1475 1474 1473 1472 1471
1479 1479 1479 1479 1479 1479 1479 1479 1479 1478 1478 1478 1478 1479 1480 1480 1481 1482 1482 1483 1483 1483 1483 1483 1482 1482 1483 1482 1482 1481 1481 1480 1479 1478 1477 1477 1476 1475 1474 1473 1472 1471 1470 1469
1477 1477 1478 1477 1477 1478 1477 1477 1477 1477 1478 1478 1478 1478 1478 1479 1479 1481 1481 1482 1482 1481 1481 1481 1481 1481 1480 1480 1480 1479 1479 1478 1477 1476 1476 1475 1474 1473 1472 1471 1470 1469 1468 1466
1476 1476 1476 1476 1476 1476 1476 1476 1476 1476 1476 1476 1476 1477 1477 1477 1478 1479 1480 1480 1480 1480 1480 1479 1479 1479 1479 1478 1477 1477 1476 1476 1475 1475 1474 1473 1472 1471 1470 1469 1467 1466 1465 1464
1473 1474 1474 1474 1474 1474 1475 1475 1475 1476 1476 1475 1476 1476 1476 1476 1476 1477 1478 1478 1478 1478 1478 1478 1477 1477 1476 1476 1475 1475 1474 1474 1473 1472 1472 1471 1469 1468 1468 1466 1465 1464 1463 1462
1471 1472 1472 1472 1473 1473 1474 1474 1474 1474 1474 1474 1474 1474 1474 1475 1475 1476 1476 1476 1476 1475 1475 1475 1475 1475 1474 1473 1473 1472 1472 1471 1471 1470 1469 1468 1467 1466 1465 1464 1463 1462 1461 1460
1469 1469 1469 1470 1471 1472 1472 1473 1473 1473 1473 1473 1473 1473 1472 1473 1473 1474 1474 1474 1474 1474 1473 1473 1473 1472 1472 1471 1471 1470 1469 1469 1468 1467 1467 1466 1465 1464 1463 1462 1461 1460 1459 1457
1467 1467 1468 1469 1470 1470 1471 1471 1471 1471 1471 1472 1472 1471 1471 1471 1472 1472 1472 1472 1472 1472 1472 1471 1471 1470 1469 1469 1468 1468 1467 1466 1466 1465 1464 1463 1463 1462 1460 1459 1458 1457 1456 1454
1466 1467 1467 1468 1468 1469 1469 1470 1470 1470 1470 1470 1470 1470 1470 1470 1470 1470 1470 1471 1470 1470 1470 1469 1468 1468 1467 1467 1466 1465 1465 1464 1463 1463 1462 1461 1460 1459 1458 1457 1456 1454 1453 1452
1466 1466 1467 1467 1467 1468 1468 1468 1468 1468 1468 1468 1468 1468 1468 1469 1468 1468 1468 1469 1469 1468 1467 1466 1466 1466 1465 1464 1464 1463 1462 1462 1461 1460 1460 1459 1458 1457 1456 1455 1454 1452 1451 1450
1465 1465 1466 1466 1466 1466 1466 1466 1466 1466 1466 1466 1466 1466 1466 1466 1467 1467 1466 1466 1466 1466 1465 1464 1464 1463 1463 1462 1462 1461 1460 1460 1459 1458 1457 1457 1456 1455 1454 1452 1451 1450 1449 1447
1464 1464 1464 1465 1465 1464 1464 1464 1464 1464 1464 1464 1465 1465 1466 1465 1465 1465 1465 1465 1465 1464 1463 1462 1462 1461 1461 1460 1460 1459 1458 1457 1457 1456 1455 1454 1453 1452 1451 1450 1449 1448 1446 1445
1464 1464 1463 1463 1463 1463 1463 1463 1463 1463 1463 1463 1464 1464 1464 1464 1464 1464 1463 1463 1463 1462 1461 1461 1460 1459 1459 1458 1458 1457 1456 1455 1455 1454 1452 1451 1450 1449 1449 1448 1446 1445 1444 1443
1463 1462 1462 1462 1462 1462 1462 1462 1462 1462 1462 1462 1462 1462 1462 1462 1462 1462 1462 1462 1461 1460 1460 1459 1459 1458 1457 1456 1456 1455 1454 1453 1452 1451 1450 1449 1448 1447 1446 1445 1444 1443 1442 1441